User: anonymous   Login
Location: Unspecified
(0.0000°N, 0.0000°E)
Time: 00:28:54
(UTC+00:00)
Language:

SIRIUS-2 - Orbit

View from above orbital plane
View from above orbital plane
View from above satellite
View from above satellite

Ground track
Ground track

The orbit data is extracted from the following two-line orbital elements,

1 26483U 00051A   18200.03001049 -.00000049  00000-0  00000+0 0  9990
2 26483  64.9037  98.3036 0147556 257.1741  52.3425  1.64982082 70130
Epoch (UTC): 19 July 2018 00:43:12
Eccentricity: 0.0147556
inclination: 64.9037°
perigee height: 23429 km
apogee height: 24321 km
right ascension of ascending node: 98.3036°
argument of perigee: 257.1741°
revolutions per day: 1.64982082
mean anomaly at epoch: 52.3425°
orbit number at epoch: 7013

The dashed part of the orbit path shows where the satellite is in the earth's shadow,  

DLR